Find Starlink 30856

NORAD ID: 58725 Int'l Des: 2024-002 Owner: SPXS Country: US Constellation: starlink operational
LEOCIRCULAR

实时位置

正在加载3D地球...

关于 Starlink 30856

正在加载描述...

即将过境

Passes for default location (London). Set your location on the main map for personalized predictions.

高度历史

Loading altitude history...

两行轨道根数

1 58725U 24002W 26129.80788727 -.00000524 00000-0 -55741-5 0 9992
2 58725 53.1615 305.9861 0001255 84.2073 275.9071 15.30189009131371
Epoch: May 9, 2026 • Age: 8 hours

当前状态

高度 477.9 km
速度 7.63 km/s
星下点 -9.36°S, 21.84°E
发射日期 Jan 3, 2024
运行时间 2.3 years
类型 internet

技术详情

分类 Payload
质量 730.00 kg
干质量 700.00 kg
总质量 730.00 kg
长度 0.30 m
直径 4.10 m
跨度 29.00 m
形状 Box + pan
制造商 SPXS
平台类型 Starlink V2M
阶段状态 In Orbit
所有者/国家 SPXS/US

Most Searched